Location: ???????
(41.1779°N, 22.7611°E)
Time: 18:07:34
(UTC+00:00)

Daily predictions for brighter satellites

Satellite Brightness Start Highest point End
(mag) Time Altitude Azimuth Time Altitude Azimuth Time Altitude Azimuth
ATLAS 2AS CENTAUR R/B 3.9 18:06:43 10° NNW 18:13:14 32° NE 18:19:18 10° E
Cosmos 1151 Rocket 3.0 18:09:49 10° S 18:14:10 77° E 18:18:35 10° N
Ariane Rocket 3.4 18:11:17 10° SE 18:16:07 48° ENE 18:21:00 10° N
Cosmos 1933 4.4 18:12:36 10° SSW 18:16:29 49° W 18:20:25 10° N
Cosmos 1666 Rocket 3.5 18:12:08 10° N 18:16:30 83° E 18:20:50 10° S
Cosmos 1943 Rocket 3.8 18:14:23 10° SE 18:17:11 14° E 18:19:58 10° ENE
MetOp-A 4.4 18:12:32 10° S 18:17:53 76° WSW 18:23:15 10° NNW
CZ-4 R/B 4.2 18:16:49 10° SW 18:19:14 15° W 18:21:39 10° NW
SJ-6B 2.8 18:15:33 10° SSE 18:19:30 82° ENE 18:23:33 10° N
Tianhe-1 1.0 18:16:46 10° WSW 18:19:52 71° SSE 18:23:00 10° E
Cosmos 2082 Rocket 3.0 18:15:26 10° N 18:20:38 37° ENE 18:25:49 10° SE
deb Kosmos-1763 4.3 18:19:01 10° N 18:22:29 50° ENE 18:25:55 10° SE
USA 308 2.9 18:19:20 10° NW 18:23:38 89° SW 18:27:56 10° SE
Helios 1A Rocket 4.1 18:25:12 10° S 18:29:08 44° W 18:33:07 10° NNW
Resurs 1-3 3.7 18:28:06 10° SSE 18:32:24 62° ENE 18:36:45 10° N
ATLAS 5 CENTAUR R/B 4.3 18:29:37 10° WNW 18:34:34 27° WSW 18:40:05 10° SSW
BREEZE-M DEB (TANK) 3.9 18:33:28 10° NW 18:34:44 13° N 18:35:52 10° NE
MOS 1-B Rocket 4.4 18:34:29 10° N 18:41:19 76° WNW 18:47:12 10° SSW
Cosmos 2278 Rocket 2.8 18:36:52 10° SW 18:42:27 62° WNW 18:48:04 10° NNE
GPS 2-04 Rocket1 4.2 18:39:27 10° WSW 18:42:52 25° SSW 18:45:33 14° SSE
ARIANE 5 R/B 4.5 18:41:20 10° E 18:43:51 16° ENE 18:46:29 10° NNE
Cosmos 1271 Rocket 3.0 18:42:06 10° S 18:45:57 48° E 18:49:48 10° NNE
Cosmos 2369 Rocket 3.9 18:44:54 12° ESE 18:45:59 12° E 18:48:11 10° ENE
Meteor 1-10 Rocket 4.4 18:42:09 10° S 18:47:34 54° E 18:53:06 10° NNE
MOS 1 4.4 18:42:19 10° SSE 18:47:59 83° WSW 18:53:43 10° NNW
Cosmos 1461 3.9 18:44:24 10° S 18:48:32 31° ESE 18:52:39 10° NE
COSMOS 2406 3.5 18:42:58 10° NNW 18:48:37 69° WSW 18:54:15 10° SSE
USA 267 3.6 18:46:01 11° SSE 18:52:14 60° SW 18:58:43 10° NW
Cosmos 1709 Rocket 4.5 18:46:46 10° NNW 18:52:47 62° W 18:58:47 10° S
Landsat 7 4.2 18:49:17 15° SE 18:53:03 47° ENE 18:57:37 10° N
Delta 2 Rocket 4.5 18:52:20 10° W 18:57:23 40° S 19:00:30 19° SE
Cosmos 1666 2.6 18:54:06 10° N 18:57:48 62° E 19:00:26 18° SSE
USA 186 4.5 18:58:06 10° W 18:58:13 10° W 18:58:20 10° W
Nadezhda 1 Rocket 4.5 18:54:12 12° SSE 18:59:29 40° E 19:05:12 10° NNE
USA 305 3.8 18:56:03 10° WNW 19:00:02 40° SW 19:03:02 16° SSE
OAO 3 Rocket 3.7 18:56:04 10° WSW 19:00:24 39° S 19:03:06 20° ESE
Cosmos 1536 4.0 18:59:21 10° NNE 19:02:48 26° ENE 19:04:24 20° ESE
Cosmos 2074 Rocket 4.1 18:58:22 10° N 19:04:38 63° E 19:09:42 16° SSE
ERBS 4.1 19:02:58 10° NNW 19:05:39 22° NE 19:07:36 14° E
CZ-2C R/B 2.2 19:04:43 10° SW 19:08:05 25° SSE 19:08:47 24° SSE
Cosmos 2184 Rocket 4.0 19:01:56 10° N 19:08:05 64° E 19:12:52 17° SSE
Cosmos 1812 3.7 19:04:50 10° SSW 19:08:33 49° W 19:12:19 10° N
SWARM C 4.4 19:05:23 10° N 19:08:43 89° WNW 19:11:03 18° S
SWARM A 4.2 19:05:31 10° N 19:08:51 86° W 19:11:14 18° S
Cosmos 1833 Rocket 3.6 19:04:06 10° NW 19:09:28 45° WSW 19:14:47 10° S
CZ-4C R/B 3.9 19:02:38 10° NW 19:09:49 46° WSW 19:17:50 10° S
OBJECT-B 3.5 19:08:35 10° SW 19:10:47 17° W 19:13:01 10° NW
Meteor 2-6 Rocket 4.4 19:05:38 10° SSW 19:11:03 72° W 19:16:40 10° N
ERS-1 Rocket 4.3 19:09:06 17° ESE 19:11:34 25° ENE 19:15:36 10° NNE
Cosmos 967 Rocket 4.4 19:08:03 10° SSW 19:14:16 73° ESE 19:20:31 10° NE
Cosmos 1515 Rocket 4.4 19:11:01 10° SSW 19:15:17 51° W 19:19:33 10° N
Cosmos 2112 Rocket 4.4 19:14:02 10° N 19:19:15 50° ENE 19:22:07 25° SE
USA 306 4.4 19:16:07 10° WNW 19:19:46 28° SW 19:22:06 17° S
ISS -1.4 19:19:22 10° W 19:22:15 26° NNW 19:25:09 10° NE
Cosmos 1937 Rocket 3.7 19:18:54 17° S 19:22:41 49° ESE 19:27:40 10° NNE
Spot 2 Rocket 3.9 19:20:28 25° SE 19:23:04 47° ENE 19:27:53 10° N
Cosmos 1869 Rocket 3.7 19:20:44 10° N 19:25:00 56° E 19:26:54 31° SE
Cosmos 2228 Rocket 3.0 19:24:37 15° S 19:28:13 89° E 19:32:44 10° N
SPOT 1/Viking Rocket 3.5 19:25:15 25° SSE 19:28:21 73° ENE 19:33:32 10° N
Cosmos 44 3.5 19:23:38 10° NNW 19:29:04 76° ENE 19:31:42 30° SE
Meteor 2-12 Rocket 4.4 19:25:34 10° N 19:31:38 76° E 19:35:24 24° SSE
MetOp-B 4.1 19:29:24 22° S 19:33:00 83° WSW 19:38:24 10° NNW
Meteor 1-27 Rocket 3.8 19:28:18 12° S 19:33:44 83° E 19:39:42 10° NNE
Resurs 01 Rocket 2.4 19:30:44 16° S 19:34:04 48° W 19:38:23 10° NNW
Cosmos 1743 3.6 19:31:55 10° NNE 19:35:26 32° ENE 19:35:58 31° E
IGS 5A 4.2 19:34:48 19° SSW 19:37:33 47° W 19:41:34 10° NNW
Cosmos 2084 Rocket 3.6 19:34:00 10° NNW 19:38:18 69° NE 19:39:54 38° SE
Cosmos 1707 Rocket 3.9 19:37:39 37° SE 19:38:49 46° E 19:43:04 10° NNE
CARTOSAT-1 3.7 19:38:27 37° SE 19:39:52 56° ENE 19:44:06 10° N
Cosmos 858 Rocket 4.4 19:37:41 18° S 19:41:35 71° ESE 19:46:49 10° NNE
DNEPR-1 R/B 4.3 19:36:20 10° SW 19:42:32 75° NW 19:47:38 10° NNE
Cosmos 1680 Rocket 3.5 19:38:47 10° NNW 19:44:08 85° WSW 19:46:39 32° SSE
Cosmos 1867 3.9 19:43:24 32° SSE 19:45:09 42° ESE 19:50:17 10° NE
SPOT 3 Rocket 4.3 19:41:44 17° S 19:45:29 48° W 19:50:29 10° NNW
SJ 16-02 4.2 19:46:13 10° WSW 19:49:16 18° WNW 19:52:20 10° NNW
Cosmos 2297 3.9 19:43:51 10° SSW 19:49:32 71° WNW 19:55:13 10° NNE
Iridium 4 Rocket 4.3 19:45:06 12° SSW 19:50:32 60° W 19:56:22 10° N
Tianhe-1 1.2 19:53:18 10° W 19:56:10 72° WNW 19:56:10 72° WNW
Cosmos 372 Rocket 4.0 19:56:48 41° SSE 19:58:16 57° ESE 20:03:16 10° NNE
Cosmos 1943 Rocket 2.3 19:54:33 10° SSW 20:00:11 77° WNW 20:05:49 10° NNE
Terra 2.2 19:59:45 40° ESE 20:00:48 47° ENE 20:05:22 10° N
Gbstr 26 Del rocket 4.2 19:55:13 10° NW 20:02:54 82° NE 20:05:58 35° ESE
Cosmos 2082 Rocket 3.6 19:59:42 10° NW 20:04:35 31° WSW 20:07:52 18° SSW
ATLAS 2AS CENTAUR R/B 2.9 19:57:34 10° NW 20:04:42 64° WSW 20:07:46 34° S
Cosmos 1515 3.6 20:04:46 68° E 20:04:46 68° E 20:08:29 10° NNE
Cosmos 1656 Rocket 4.1 20:05:34 37° ESE 20:05:44 37° ESE 20:10:47 10° NE
Cosmos 1733 Rocket 3.2 20:03:33 10° N 20:07:47 52° E 20:08:05 51° E
Cosmos 2341 Rocket 4.1 20:01:36 10° N 20:07:58 66° E 20:10:16 40° SSE
Cosmos 1544 3.3 20:05:27 10° NNW 20:09:02 62° W 20:09:21 59° SW
Cosmos 2218 Rocket 4.5 20:05:21 10° N 20:11:25 45° ENE 20:13:13 37° ESE
Cosmos 1340 Rocket 3.0 20:07:54 10° NNW 20:11:57 64° W 20:12:35 54° SW
Okean 1 3.2 20:13:39 72° E 20:13:39 72° E 20:17:34 10° NNE
ARIANE 5 R/B 3.2 20:18:52 39° SW 20:19:54 48° W 20:24:07 10° NNW
SL-8 Rocket 4.1 20:14:01 10° N 20:20:19 64° E 20:22:07 45° SE
Cosmos 2298 Rocket 4.5 20:22:28 42° E 20:22:28 42° E 20:27:17 10° NNE
SL-24 DEB 4.5 20:28:12 50° SW 20:29:07 61° W 20:33:42 10° NNW
Cosmos 2369 Rocket 2.1 20:26:36 34° SSW 20:29:09 85° WNW 20:34:50 10° NNE
H-2A R/B 3.3 20:25:18 10° NNE 20:29:29 88° WNW 20:29:32 87° WSW
Milstar 3 4.0 20:17:49 10° WSW 20:31:18 40° SSW 20:33:40 35° SSE
ATLAS CENTAUR R/B 2.0 20:36:25 44° NNE 20:36:25 44° NNE 20:39:06 10° NNE
Cosmos 1818 4.0 20:30:22 10° NW 20:35:39 50° WSW 20:36:36 44° SSW
SPOT 5 3.6 20:39:51 41° SW 20:41:09 50° W 20:46:21 10° NNW
ERBS 4.3 20:38:46 10° WNW 20:40:21 23° W 20:40:21 23° W
Okean 1-7 4.1 20:44:31 33° ENE 20:44:31 33° ENE 20:47:25 10° NNE
Cosmos 1238 Rocket 3.3 20:38:29 10° N 20:43:54 71° W 20:44:23 65° SW
Cosmos 864 Rocket 4.4 20:38:20 10° N 20:44:30 76° E 20:45:43 58° SSE
Cosmos 1959 Rocket 4.3 20:40:48 10° N 20:47:00 82° E 20:48:14 59° SSE
Cosmos 2150 Rocket 3.9 20:48:30 69° ESE 20:48:33 69° ESE 20:53:49 10° NNE
Cosmos 2242 Rocket 4.2 20:50:27 45° NE 20:50:27 45° NE 20:53:59 10° NNE
ERS-1 Rocket 3.9 20:49:06 35° SW 20:50:08 39° W 20:54:51 10° NNW
Meteor 2-9 Rocket 4.1 20:44:29 10° NNW 20:50:10 78° W 20:51:03 63° SSW
Cosmos 1125 Rocket 3.7 20:50:54 53° E 20:50:54 53° E 20:55:31 10° NNE
Cosmos 1862 Rocket 4.2 20:54:15 44° W 20:54:37 46° WNW 20:58:47 10° N
Meteor 1-18 Rocket 4.4 20:54:24 48° SW 20:55:52 66° WNW 21:01:25 10° N
Cosmos 1703 Rocket 4.2 20:57:18 48° NE 20:57:18 48° NE 21:00:45 10° NNE
Cosmos 1975 3.4 20:54:33 10° N 20:57:45 55° NNW 20:57:45 55° NNW
Cosmos 1607 4.4 20:54:28 17° SW 20:59:30 63° NW 21:05:58 10° NNE
ISS -0.5 20:58:04 10° NW 20:59:56 14° N 21:01:48 10° NNE
Cosmos 724 4.3 21:03:18 68° SSE 21:03:46 71° ESE 21:10:00 10° NE
Lacrosse 5 2.2 21:09:47 56° ENE 21:09:47 56° ENE 21:13:51 10° NE
RESURS DK-1 3.3 21:10:54 10° NNW 21:13:58 46° NW 21:13:58 46° NW
Cosmos 1821 Rocket 4.0 21:16:11 10° N 21:22:34 70° E 21:23:13 65° ESE
Cosmos 2366 rocket 4.5 21:18:18 10° NNW 21:24:17 51° W 21:25:28 45° SW
Cosmos 1356 Rocket 4.5 21:22:32 10° N 21:25:42 43° NNE 21:25:42 43° NNE
Meteor 1-12 Rocket 4.2 21:23:29 10° N 21:29:16 69° E 21:29:22 69° E
Meteor 2-4 Rocket 4.2 21:28:24 48° WSW 21:29:19 53° WNW 21:34:45 10° N
Cosmos 1048 Rocket 4.2 21:24:43 10° NNW 21:29:35 61° W 21:29:35 61° W
Terra 3.8 21:38:38 18° W 21:38:46 18° W 21:42:00 10° NW
Cosmos 44 Rocket 3.6 21:33:35 10° NNW 21:38:15 71° NNW 21:38:15 71° NNW
Cosmos 1833 4.5 21:36:03 10° NNW 21:41:31 56° W 21:41:31 56° W
COSMOS 2455 4.2 21:38:12 10° NNW 21:43:33 32° NE 21:45:34 26° E
ALOS 2 3.4 21:51:57 48° N 21:51:57 48° N 21:55:13 10° N
COBE Rocket 4.3 21:51:31 60° NE 21:51:31 60° NE 21:56:14 10° N
Cosmos 1269 Rocket 4.3 21:49:48 10° NNW 21:54:42 62° NE 21:54:42 62° NE
Meteor 1-23 Rocket 4.2 22:04:05 83° NE 22:04:05 83° NE 22:09:46 10° N
Nadezhda 3 Rocket 4.4 22:06:38 49° WSW 22:07:23 52° WNW 22:13:26 10° N
Thor Agena Rocket 3.9 22:07:39 10° NNE 22:12:11 58° ENE 22:12:11 58° ENE
NOSS 2-1 (C) 4.4 22:09:45 10° NW 22:14:45 72° W 22:14:45 72° W
Cosmos 1605 Rocket 3.9 22:22:41 10° N 22:29:02 80° E 22:29:20 78° ESE
Cosmos 2344 4.5 22:21:39 10° NW 22:31:27 69° WSW 22:35:50 46° S
Okean 2 Rocket 4.3 22:28:35 10° NNW 22:31:30 39° NNW 22:31:30 39° NNW
Cosmos 1697 Rocket 4.0 22:36:05 28° E 22:36:05 28° E 22:40:04 10° NE
Cosmos 1400 Rocket 4.4 22:31:30 10° N 22:33:54 34° N 22:33:54 34° N
Cosmos 1726 4.4 22:32:11 10° N 22:33:55 22° NNE 22:33:55 22° NNE
ISS -0.8 22:35:07 10° NNW 22:36:27 17° NNW 22:36:27 17° NNW
Lacrosse 4 Rocket 3.5 22:46:24 21° ENE 22:46:24 21° ENE 22:48:23 10° NE
Meteor 1-22 Rocket 4.3 22:43:01 10° NNW 22:49:05 76° W 22:49:05 76° W
Cosmos 1980 Rocket 3.9 22:50:30 20° E 22:50:30 20° E 22:54:16 10° NE
Lacrosse 5 3.9 22:48:53 14° WNW 22:52:13 25° NNW 22:56:26 10° NNE
Meteor 2-20 4.3 22:52:57 85° SSW 22:53:09 88° WNW 22:59:20 10° N
Cosmos 1656 3.6 23:00:02 79° N 23:00:02 79° N 23:05:15 10° NNE
Timation 2 Rocket 4.1 22:56:03 10° NNW 23:02:01 64° ENE 23:02:59 56° ESE
Cosmos 614 Rocket 4.4 23:00:01 10° N 23:05:02 54° ENE 23:05:06 54° ENE
SeaSat 1 2.7 23:01:22 10° NNE 23:05:37 63° ENE 23:05:37 63° ENE
Cosmos 2227 Rocket 2.4 23:01:17 10° NNW 23:06:54 64° ENE 23:07:26 60° E
Cosmos 2297 Rocket 2.1 23:03:01 10° NNW 23:08:40 85° NE 23:08:40 85° NE
Meteor 2-10 4.4 23:05:15 10° NNW 23:09:41 56° NW 23:09:41 56° NW
Cosmos 2100 Rocket 4.1 23:06:54 10° N 23:13:14 70° E 23:14:11 61° SE
Okean 1 Rocket 4.3 23:16:42 10° NNW 23:19:30 35° NW 23:19:30 35° NW
Cosmos 1802 Rocket 4.3 23:15:33 10° N 23:21:37 59° E 23:22:51 50° SE
Cosmos 2369 4.0 23:22:04 54° ESE 23:22:07 55° ESE 23:27:42 10° NNE
Helios 1A 3.8 23:24:53 49° NNE 23:24:53 49° NNE 23:28:06 10° N
Cosmos 1000 Rocket 4.3 23:23:42 72° SSE 23:24:22 84° E 23:30:38 10° N
USA 215 4.0 23:19:07 10° ESE 23:25:24 52° NNE 23:31:42 10° NW
Cosmos 2082 4.5 23:20:25 10° NNW 23:25:56 48° ENE 23:28:04 33° ESE
COSMOS 2455 3.4 23:23:56 10° NW 23:28:41 42° W 23:28:41 42° W
Resurs 1-4 Rocket 3.0 23:26:18 10° NNE 23:31:12 37° E 23:31:39 37° ESE
Atlas Centaur 2 4.4 23:34:13 21° SE 23:34:13 21° SE 23:37:43 10° ESE
Cosmos 371 Rocket 3.9 23:36:48 48° NW 23:36:48 48° NW 23:41:18 10° N
Timation 1 Rocket 4.3 23:30:42 10° NNW 23:36:43 79° ENE 23:37:53 59° SE
Cosmos 1727 Rocket 4.5 23:36:38 44° W 23:37:22 46° WNW 23:43:29 10° N
CZ-2D R/B 2.7 23:35:57 10° NNE 23:41:04 45° E 23:41:40 43° ESE
Cosmos 1953 3.2 23:37:05 10° N 23:40:08 48° NNE 23:40:08 48° NNE
Meteor 2-11 Rocket 4.4 23:35:27 10° N 23:41:39 84° E 23:42:45 62° SSE
Cosmos 332 Rocket 3.9 23:43:46 66° NW 23:43:46 66° NW 23:48:22 10° NNE
Cosmos 2251 Rocket 4.1 23:38:43 10° NNW 23:42:53 45° WNW 23:42:53 45° WNW
Cosmos 1544 Rocket 4.1 23:40:21 10° N 23:44:39 51° ENE 23:44:39 51° ENE
NPP 4.2 23:47:03 10° NNE 23:52:15 46° E 23:53:13 42° SE
Cosmos 2263 Rocket 4.0 23:48:25 10° N 23:53:15 28° NE 23:58:05 10° ESE
Cosmos 1455 Rocket 3.4 23:49:41 10° NNW 23:53:16 57° NNW 23:53:16 57° NNW
SL-14 R/B 4.4 23:55:03 39° E 23:55:03 39° E 23:58:27 10° NNE
Cosmos 2322 Rocket 4.4 23:53:51 11° SE 23:56:19 14° E 23:59:15 10° ENE
